Flag for Poland Weather past 2 weeks in Płock, Poland

Now
62 °F

Refreshingly cool.


Feels Like: 62 °F
Forecast: 52 / 70 °F
Wind: 2 mph from West

Location: Plock

Current Time: May 29, 2015 at 1:06:22 PM

Latest Report: May 29, 2015 at 12:00 PM


Visibility: 22 mi

Pressure: 29.93 "Hg

Humidity: 58%

Dew point: 47 °F

Location of PłockLocation

Historic Weather in Płock — Graph

°F

Płock temperature yesterday

Maximum temperature yesterday: 62 °F (at 6:00 PM)
Minimum temperature yesterday: 47 °F (at 2:00 AM)
Average temperature yesterday: 56 °F

Past Weeks' High & Low Weather Summary

 TemperatureHumidityPressure
High74 °F (May 19, 1:00 PM)97% (May 26, 3:00 AM)30.29 "Hg (May 26, 3:00 AM)
Low32 °F (May 16, 4:00 AM)33% (May 16, 2:00 PM)29.69 "Hg (May 19, 12:00 PM)
Average56 °F67%29.98 "Hg
* Reported May 14 11:00 AM — May 29 11:00 AM, Płock, Weather by CustomWeather, © 2015

Note: Actual official high and low records may vary slightly from our data, if they occured in-between our weather recording intervals... More about our weather records

Advertising

Płock weather history for previous 24 hours

 ConditionsComfort  
Time TempWeatherWind HumidityBarometerVisibility
11:00 AM
Fri, May 29
60 °FCool.3 mph63%29.93 "Hg17 mi
10:00 AM56 °FCool.2 mph74%29.93 "Hg11 mi
9:00 AM52 °FCool.2 mph79%29.93 "Hg12 mi
8:00 AM49 °FLots of rain. Cloudy.2 mph81%29.92 "Hg7 mi
7:00 AM50 °FLight rain. Cloudy.1 mph72%29.92 "Hg12 mi
6:00 AM49 °FRain showers. Cloudy.2 mph74%29.92 "Hg12 mi
5:00 AM48 °FCool.1 mph75%29.92 "Hg15 mi
4:00 AM46 °FCool.1 mph75%29.92 "Hg17 mi
3:00 AM48 °FCool.2 mph73%29.93 "Hg17 mi
2:00 AM48 °FCool.2 mph72%29.93 "Hg28 mi
12:00 AM51 °FCool.2 mph66%29.93 "Hg25 mi
10:00 PM
Thu, May 28
54 °FCool.2 mph61%29.94 "Hg28 mi
9:00 PM57 °FRefreshingly cool.2 mph53%29.93 "Hg31 mi
8:00 PM58 °FRefreshingly cool.2 mph52%29.93 "Hg28 mi
7:00 PM61 °FRefreshingly cool.2 mph47%29.93 "Hg28 mi
6:00 PM62 °FRefreshingly cool.2 mph44%29.94 "Hg22 mi
5:00 PM62 °FRefreshingly cool.3 mph44%29.96 "Hg22 mi
4:00 PM61 °FRefreshingly cool.2 mph43%29.97 "Hg22 mi
2:00 PM60 °FRefreshingly cool.2 mph52%30.00 "Hg19 mi
Weather by CustomWeather, © 2015

See weather overviewHow to use our weather pages